Weather History for KFNT - January, 2012

Change the Weather History Date:

Saturday, January 14, 2012

  Actual Average Record
Temperature  
Mean Temperature 14 °F 22 °F  
Max Temperature 21 °F 29 °F 56 °F (1995)
Min Temperature 7 °F 15 °F -19 °F (2009)
Degree Days  
Heating Degree Days 51 43  
Month to date heating degree days 464 591  
Since 1 July heating degree days 2649 3236  
Cooling Degree Days 0 0  
Month to date cooling degree days 0 0  
Year to date cooling degree days 0 0  
Moisture  
Dew Point 11 °F    
Average Humidity 73    
Maximum Humidity 84    
Minimum Humidity 62    
Precipitation  
Precipitation 0.04 in 0.05 in 0.64 in (2004)
Month to date precipitation 0.39 0.80  
Year to date precipitation 0.39 0.80  
Snow  
Snow 1.00 in 0.50 in 9.80 in (2004)
Month to date snowfall 5.4 6.0  
Since 1 July snowfall 13.5 20.7  
Snow Depth 0.00 in    
Sea Level Pressure  
Sea Level Pressure 30.09 in    
Wind  
Wind Speed 5 mph (NNE)    
Max Wind Speed 10 mph    
Max Gust Speed 14 mph    
Visibility 7 miles    
Events Snow    
T = Trace of Precipitation, MM = Missing Value Source: NWS Daily Summary

Daily Weather History Graph

Daily Weather History Graph

Search for Another Location

Airport or City:

Trip Planner

Search our weather history database for the weather conditions in past years. The results will help you decide how hot, cold, wet, or windy it might be!

Date:

Astronomy

Jan. 14, 2012 Rise Set
Actual Time 8:04 AM EST 5:24 PM EST
Civil Twilight 7:32 AM EST 5:55 PM EST
Nautical Twilight 6:57 AM EST 6:30 PM EST
Astronomical Twilight 6:23 AM EST 7:04 PM EST
Moon 11:55 PM EST (1/14) 10:38 AM EST (1/14)
Length of Visible Light 10h 23m
Length of Day
9h 20m
Waning Gibbous, 69% of the Moon is Illuminated
Jan 14
Waning Gibbous
Jan 16
Last Quarter
Jan 23
New
Jan 30
First Quarter
Feb 7
Full

Hourly Weather History & Observations

Time (EST) Temp. Windchill Dew Point Humidity Pressure Visibility Wind Dir Wind Speed Gust Speed Precip Events Conditions
12:04 AM 19.4 °F 11.5 °F 15.8 °F 86% 29.92 in 5.0 mi WNW 5.8 mph - 0.00 in Snow Light Snow
12:53 AM 21.0 °F 12.4 °F 16.0 °F 81% 29.96 in 5.0 mi WNW 6.9 mph - 0.00 in Snow Light Snow
1:53 AM 19.9 °F 11.1 °F 15.1 °F 81% 29.98 in 9.0 mi WNW 6.9 mph - 0.00 in Snow Light Snow
2:25 AM 19.4 °F 10.4 °F 15.8 °F 86% 29.95 in 8.0 mi NW 6.9 mph - 0.00 in Snow Light Snow
2:33 AM 19.4 °F 11.5 °F 15.8 °F 86% 29.96 in 6.0 mi NNW 5.8 mph - 0.00 in Snow Light Snow
2:53 AM 19.9 °F 13.4 °F 15.1 °F 81% 30.01 in 6.0 mi NNW 4.6 mph - 0.00 in Snow Light Snow
3:19 AM 19.4 °F 11.5 °F 14.0 °F 80% 29.97 in 8.0 mi North 5.8 mph - 0.00 in   Overcast
3:53 AM 19.0 °F 11.1 °F 12.9 °F 77% 30.01 in 10.0 mi NNE 5.8 mph - 0.00 in   Overcast
4:35 AM 19.4 °F - 12.2 °F 74% 29.98 in 10.0 mi Calm Calm - N/A   Overcast
4:53 AM 19.0 °F - 12.0 °F 74% 30.03 in 5.0 mi Calm Calm - 0.00 in Snow Light Snow
5:11 AM 19.4 °F - 12.2 °F 74% 29.99 in 4.0 mi Calm Calm - 0.00 in Snow Light Snow
5:53 AM 19.0 °F 13.9 °F 12.0 °F 74% 30.04 in 5.0 mi NE 3.5 mph - 0.00 in Snow Light Snow
6:53 AM 18.0 °F 12.7 °F 12.9 °F 81% 30.05 in 5.0 mi NE 3.5 mph - 0.00 in Snow Light Snow
7:43 AM 17.6 °F 12.3 °F 12.2 °F 79% 30.03 in 4.0 mi NNE 3.5 mph - 0.00 in Snow Light Snow
7:53 AM 18.0 °F 11.1 °F 12.9 °F 81% 30.07 in 2.5 mi NE 4.6 mph - 0.00 in Snow Light Snow
8:29 AM 17.6 °F 10.7 °F 12.2 °F 79% 30.04 in 1.5 mi NNE 4.6 mph - 0.00 in Snow Light Snow
8:53 AM 18.0 °F 9.8 °F 12.9 °F 81% 30.09 in 1.5 mi NE 5.8 mph - 0.00 in Snow Light Snow
9:53 AM 18.0 °F 8.7 °F 12.9 °F 81% 30.11 in 1.8 mi NE 6.9 mph - 0.00 in Snow Light Snow
10:07 AM 19.4 °F 10.4 °F 12.2 °F 74% 30.08 in 1.5 mi ENE 6.9 mph - 0.01 in Snow Light Snow
10:25 AM 17.6 °F 7.3 °F 12.2 °F 79% 30.08 in 3.0 mi ENE 8.1 mph - 0.01 in Snow Light Snow
10:53 AM 18.0 °F 7.7 °F 12.0 °F 78% 30.13 in 3.0 mi ENE 8.1 mph - 0.01 in   Haze
11:35 AM 19.4 °F 11.5 °F 10.4 °F 68% 30.09 in 10.0 mi ENE 5.8 mph - N/A   Overcast
11:42 AM 19.4 °F 9.5 °F 10.4 °F 68% 30.09 in 10.0 mi ENE 8.1 mph - N/A   Overcast
11:53 AM 19.0 °F 11.1 °F 10.9 °F 71% 30.13 in 9.0 mi ENE 5.8 mph - N/A   Overcast
12:53 PM 19.9 °F 14.9 °F 10.9 °F 68% 30.11 in 10.0 mi NE 3.5 mph - N/A   Overcast
1:53 PM 21.0 °F 13.4 °F 10.9 °F 65% 30.12 in 10.0 mi NE 5.8 mph - N/A   Overcast
2:13 PM 21.2 °F 11.7 °F 10.4 °F 63% 30.08 in 10.0 mi North 8.1 mph - N/A   Overcast
2:53 PM 19.9 °F 11.1 °F 10.0 °F 65% 30.12 in 10.0 mi NNE 6.9 mph - N/A   Overcast
3:53 PM 19.9 °F 11.1 °F 9.0 °F 62% 30.14 in 10.0 mi NE 6.9 mph - N/A   Overcast
4:53 PM 19.0 °F 10.0 °F 9.0 °F 65% 30.16 in 10.0 mi NNE 6.9 mph - N/A   Overcast
5:53 PM 17.1 °F 8.7 °F 8.1 °F 68% 30.19 in 10.0 mi NE 5.8 mph - N/A   Overcast
6:53 PM 16.0 °F 8.8 °F 7.0 °F 68% 30.21 in 10.0 mi NE 4.6 mph - N/A   Mostly Cloudy
7:53 PM 15.1 °F 5.2 °F 7.0 °F 70% 30.23 in 10.0 mi NE 6.9 mph - N/A   Overcast
8:53 PM 12.0 °F - 6.1 °F 77% 30.24 in 10.0 mi Calm Calm - N/A   Mostly Cloudy
9:53 PM 8.1 °F -0.5 °F 5.0 °F 87% 30.26 in 10.0 mi East 4.6 mph - N/A   Clear
10:53 PM 10.9 °F - 7.0 °F 84% 30.27 in 10.0 mi Calm Calm - N/A   Mostly Cloudy
11:53 PM 10.0 °F - 5.0 °F 80% 30.28 in 10.0 mi Calm Calm - N/A   Overcast